DW8546 Weather Reports


Display with metric or nautical units.
time (UTC)temp
F
wind
direction
speed
MPH
gust
MPH
rain 1hr
in
rain 24hr
in
rain mn
in
humidity
%
barometer
mb
20181017065539 46 311 1.0 3.0 0.00 0.00 0.00 65 959.9
20181017063054 46 267 0.0 0.0 0.00 0.00 0.00 66 959.9
20181017062554 47 266 0.0 0.0 0.00 0.00 0.00 64 959.8
20181017060103 47 290 0.0 2.0 0.00 0.00 0.00 62 959.7
20181017055545 48 274 0.0 0.0 0.00 0.00 0.00 61 959.8
20181017053144 47 234 0.0 1.0 0.00 0.00 0.00 64 959.6
20181017052600 47 237 0.0 0.0 0.00 0.00 0.00 63 959.6
20181017050115 50 29 0.0 2.0 0.00 0.00 0.00 58 959.5
20181017045548 50 120 0.0 1.0 0.00 0.00 0.00 60 959.5
20181017043046 50 197 0.0 1.0 0.00 0.00 0.00 57 959.2
20181017042549 50 243 0.0 1.0 0.00 0.00 0.00 57 959.2
20181017040205 50 198 0.0 0.0 0.00 0.00 0.00 56 959.1
20181017035558 51 198 0.0 1.0 0.00 0.00 0.00 56 959.1
20181017033124 52 243 0.0 1.0 0.00 0.00 0.00 52 958.8
20181017032600 53 243 0.0 1.0 0.00 0.00 0.00 52 958.8
20181017030107 53 245 0.0 2.0 0.00 0.00 0.00 52 958.7
20181017025553 53 240 0.0 1.0 0.00 0.00 0.00 52 958.8
20181017023125 54 245 0.0 1.0 0.00 0.00 0.00 50 958.5
20181017022548 55 245 0.0 1.0 0.00 0.00 0.00 50 958.5
20181017020134 56 205 0.0 0.0 0.00 0.00 0.00 48 958.3
20181017015551 56 203 0.0 0.0 0.00 0.00 0.00 48 958.4
20181017013049 55 238 0.0 1.0 0.00 0.00 0.00 49 958.2
20181017012549 56 221 0.0 1.0 0.00 0.00 0.00 49 958.4
20181017010101 56 271 0.0 0.0 0.00 0.00 0.00 47 958.2
20181017005551 57 276 0.0 1.0 0.00 0.00 0.00 47 958.3
20181017004509 58 222 0.0 0.0 0.00 0.00 0.00 45 958.2
20181017003126 60 245 0.0 0.0 0.00 0.00 0.00 43 958.3
20181017002558 62 245 0.0 1.0 0.00 0.00 0.00 42 958.4
20181017000150 67 190 0.0 0.0 0.00 0.00 0.00 35 958.5
20181016235600 68 189 0.0 0.0 0.00 0.00 0.00 35 958.6
20181016233142 69 144 0.0 1.0 0.00 0.00 0.00 34 958.7
20181016232556 70 145 0.0 1.0 0.00 0.00 0.00 35 958.9
20181016230110 68 114 0.0 1.0 0.00 0.00 0.00 35 958.9
20181016225545 68 66 0.0 1.0 0.00 0.00 0.00 37 959.0
20181016223133 66 177 0.0 0.0 0.00 0.00 0.00 37 959.2
20181016222556 65 193 0.0 1.0 0.00 0.00 0.00 38 959.4
20181016220102 64 165 0.0 0.0 0.00 0.00 0.00 40 959.5
20181016215541 64 151 0.0 1.0 0.00 0.00 0.00 40 959.6
20181016213128 62 84 0.0 3.0 0.00 0.00 0.00 41 959.8
20181016212541 62 158 0.0 3.0 0.00 0.00 0.00 42 959.9
20181016210110 61 146 0.0 1.0 0.00 0.00 0.00 44 960.2
20181016205600 61 108 0.0 1.0 0.00 0.00 0.00 46 960.4
20181016204506 60 133 0.0 1.0 0.00 0.00 0.00 45 960.5
20181016203115 58 120 0.0 1.0 0.00 0.00 0.00 46 960.8
20181016202559 58 130 0.0 1.0 0.00 0.00 0.00 48 960.9
20181016200059 56 98 0.0 2.0 0.00 0.00 0.00 49 961.4
20181016195550 56 152 0.0 2.0 0.00 0.00 0.00 50 961.5
20181016193107 55 184 0.0 2.0 0.00 0.00 0.00 52 961.9
20181016192553 55 115 0.0 1.0 0.00 0.00 0.00 52 962.0
20181016190051 53 156 0.0 2.0 0.00 0.00 0.00 56 962.3
20181016185544 53 193 0.0 1.0 0.00 0.00 0.00 56 962.3
20181016183148 51 222 0.0 3.0 0.00 0.00 0.00 61 962.5
20181016182602 51 87 1.0 3.0 0.00 0.00 0.00 60 962.7
20181016180044 48 138 0.0 2.0 0.00 0.00 0.00 64 962.9
20181016175547 48 115 0.0 1.0 0.00 0.00 0.00 65 962.9
20181016173238 46 30 0.0 2.0 0.00 0.00 0.00 67 963.1
20181016172603 46 107 0.0 2.0 0.00 0.00 0.00 67 963.1
20181016170130 44 75 0.0 1.0 0.00 0.00 0.00 70 963.3
20181016165604 44 31 0.0 0.0 0.00 0.00 0.00 71 963.3
20181016163101 42 123 0.0 0.0 0.00 0.00 0.00 71 963.4
20181016162553 43 123 0.0 0.0 0.00 0.00 0.00 71 963.4
20181016160037 39 123 0.0 0.0 0.00 0.00 0.00 78 963.3
20181016155550 39 123 0.0 0.0 0.00 0.00 0.00 80 963.3
20181016153145 37 123 0.0 0.0 0.00 0.00 0.00 80 963.2
20181016152555 37 123 0.0 0.0 0.00 0.00 0.00 80 963.1
20181016150100 36 181 0.0 0.0 0.00 0.00 0.00 83 962.9
20181016145551 36 181 0.0 0.0 0.00 0.00 0.00 83 962.8
20181016143115 36 181 0.0 0.0 0.00 0.00 0.00 82 962.6
20181016142558 36 181 0.0 0.0 0.00 0.00 0.00 81 962.6
20181016140128 36 175 0.0 0.0 0.00 0.00 0.00 81 962.5
20181016135604 37 175 0.0 0.0 0.00 0.00 0.00 80 962.4
20181016133121 37 174 0.0 0.0 0.00 0.00 0.00 80 962.3
20181016132604 38 191 0.0 0.0 0.00 0.00 0.00 80 962.3
20181016130106 37 253 0.0 1.0 0.00 0.00 0.00 78 962.2
20181016125600 38 253 0.0 0.0 0.00 0.00 0.00 77 962.1
20181016123158 38 253 0.0 1.0 0.00 0.00 0.00 76 962.0
20181016122602 38 253 0.0 1.0 0.00 0.00 0.00 76 961.9
20181016120131 39 306 0.0 0.0 0.00 0.00 0.00 75 961.8
20181016115551 39 306 0.0 0.0 0.00 0.00 0.00 74 961.7
20181016114514 39 306 0.0 0.0 0.00 0.00 0.00 73 961.8
20181016113302 41 307 0.0 2.0 0.00 0.00 0.00 69 961.7
20181016112603 42 316 0.0 6.0 0.00 0.00 0.00 68 961.7
20181016111505 41 347 3.0 7.0 0.00 0.00 0.00 69 961.7
20181016110123 40 148 0.0 2.0 0.00 0.00 0.00 72 961.7
20181016105600 41 347 0.0 2.0 0.00 0.00 0.00 70 961.6
20181016103110 40 298 0.0 3.0 0.00 0.00 0.00 71 961.7
20181016102605 41 284 0.0 1.0 0.00 0.00 0.00 72 961.6
20181016100116 41 197 0.0 0.0 0.00 0.00 0.00 71 961.8
20181016095552 42 162 0.0 1.0 0.00 0.00 0.00 70 961.7
20181016093206 43 5 2.0 9.0 0.00 0.00 0.00 63 961.6
20181016092600 44 304 5.0 9.0 0.00 0.00 0.00 62 961.7
20181016090131 45 288 0.0 11.0 0.00 0.00 0.00 61 961.7
20181016085557 46 288 3.0 11.0 0.00 0.00 0.00 58 961.6
20181016084502 44 330 7.0 10.0 0.00 0.00 0.00 60 961.6
20181016083210 42 248 0.0 1.0 0.00 0.00 0.00 67 961.6
20181016082558 43 248 0.0 1.0 0.00 0.00 0.00 67 961.6
20181016080048 43 239 0.0 1.0 0.00 0.00 0.00 66 961.7
20181016075547 44 239 0.0 1.0 0.00 0.00 0.00 66 961.6
20181016074645 43 101 0.0 2.0 0.00 0.00 0.00 65 961.6
20181016072559 44 248 0.0 0.0 0.00 0.00 0.00 65 961.4
20181016071615 43 248 0.0 1.0 0.00 0.00 0.00 65 961.4
20181016070006 43 250 0.0 1.0 0.00 0.00 0.00 66 961.4